1491505201.14,40265,12.56,72650.8,-10.79,-11.67,-11.67,0,*6A
1491505202.41,40266,12.56,72628.8,-10.77,-11.77,-11.67,0,*66
1491505203.67,40267,12.56,72630.8,-10.77,-11.67,-11.77,0,*67
1491505204.92,40268,12.56,72624.8,-10.77,-11.77,-11.77,0,*69
1491505206.18,40269,12.56,72622.5,-10.77,-11.67,-11.77,0,*69
1491505207.44,40270,12.56,72628.8,-10.77,-11.67,-11.77,0,*61
1491505208.74,40271,12.56,72630.8,-10.79,-11.67,-11.67,0,*6F
1491505210.03,40272,12.56,72630.3,-10.79,-11.67,-11.67,0,*6C
1491505211.32,40273,12.56,72626.3,-10.79,-11.67,-11.67,0,*6D
1491505212.62,40274,12.56,72628.0,-10.79,-11.77,-11.67,0,*6B
1491505213.88,40275,12.56,72642.3,-10.77,-11.77,-11.67,0,*64
1491505215.14,40276,12.56,72642.0,-10.77,-11.63,-11.59,0,*6F
1491505216.43,40277,12.56,72648.3,-10.79,-11.59,-11.59,0,*69
1491505217.73,40278,12.56,72642.8,-10.75,-11.55,-11.55,0,*6A
1491505218.99,40279,12.56,72652.3,-10.77,-11.51,-11.59,0,*61
1491505220.24,40280,12.56,72656.3,-10.77,-11.51,-11.51,0,*6F
1491505221.51,40281,12.56,72662.5,-10.77,-11.59,-11.59,0,*6E
1491505222.77,40282,12.56,72668.8,-10.77,-11.59,-11.63,0,*64
1491505224.03,40283,12.56,72672.3,-10.77,-11.51,-11.59,0,*64
1491505225.29,40284,12.56,72664.3,-10.77,-11.51,-11.51,0,*6B
1491505226.56,40285,12.56,72676.0,-10.75,-11.55,-11.45,0,*69
1491505227.83,40286,12.56,72672.8,-10.77,-11.63,-11.63,0,*69
1491505229.12,40287,12.56,72664.5,-10.75,-11.59,-11.59,0,*6A
1491505230.39,40288,12.56,72678.3,-10.77,-11.67,-11.63,0,*63
1491505231.68,40289,12.56,72682.8,-10.75,-11.55,-11.55,0,*64
1491505232.98,40290,12.56,72682.8,-10.75,-11.59,-11.59,0,*6C
1491505234.27,40291,12.56,72696.5,-10.75,-11.59,-11.59,0,*6D
1491505235.56,40292,12.56,72686.8,-10.75,-11.55,-11.59,0,*62
1491505236.82,40293,12.56,72694.3,-10.77,-11.63,-11.59,0,*64
1491505238.07,40294,12.56,72698.0,-10.77,-11.45,-11.51,0,*6F
1491505239.36,40295,12.56,72700.5,-10.75,-11.55,-11.59,0,*65
1491505240.65,40296,12.56,72690.5,-10.75,-11.59,-11.59,0,*6A
1491505241.92,40297,12.56,72692.0,-10.77,-11.59,-11.63,0,*60
1491505243.17,40298,12.56,72700.8,-10.75,-11.45,-11.41,0,*60
1491505244.44,40299,12.56,72706.0,-10.75,-11.33,-11.41,0,*60
1491505245.7,40300,12.56,72702.5,-10.77,-11.37,-11.37,0,*66
1491505246.96,40301,12.56,72706.8,-10.75,-11.41,-11.33,0,*60
1491505248.21,40302,12.56,72712.0,-10.75,-11.41,-11.41,0,*66
1491505249.46,40303,12.56,72714.3,-10.75,-11.45,-11.45,0,*67
1491505250.75,40304,12.56,72720.3,-10.75,-11.55,-11.59,0,*6C
1491505252.02,40305,12.56,72710.3,-10.73,-11.59,-11.59,0,*67
1491505253.29,40306,12.56,72724.5,-10.77,-11.63,-11.63,0,*60
1491505254.59,40307,12.56,72716.0,-10.75,-11.63,-11.63,0,*63
1491505255.89,40308,12.56,72700.5,-10.75,-11.63,-11.63,0,*6C
1491505257.18,40309,12.56,72700.8,-10.75,-11.63,-11.77,0,*68
1491505258.48,40310,12.56,72708.5,-10.75,-11.63,-11.63,0,*65
1491505259.78,40311,12.56,72716.5,-10.75,-11.77,-11.63,0,*61
1491505261.04,40312,12.56,72732.0,-10.77,-11.67,-11.67,0,*65
1491505262.33,40313,12.56,72734.5,-10.75,-11.63,-11.73,0,*67
1491505263.62,40314,12.56,72720.0,-10.75,-11.73,-11.73,0,*61
1491505264.89,40315,12.56,72698.8,-10.77,-11.67,-11.67,0,*62
1491505266.19,40316,12.56,72682.8,-10.75,-11.63,-11.63,0,*63
1491505267.48,40317,12.56,72688.8,-10.75,-11.63,-11.59,0,*6B
1491505268.77,40318,12.56,72698.0,-10.75,-11.59,-11.55,0,*61
1491505270.07,40319,12.56,72708.8,-10.75,-11.55,-11.59,0,*60
1491505271.34,40320,12.56,72708.0,-10.77,-11.59,-11.63,0,*6D
1491505272.63,40321,12.56,72722.8,-10.75,-11.59,-11.55,0,*6B
1491505273.89,40322,12.56,72730.8,-10.77,-11.51,-11.59,0,*6E
1491505275.15,40323,12.56,72716.3,-10.77,-11.59,-11.59,0,*67
1491505276.44,40324,12.56,72720.0,-10.75,-11.59,-11.59,0,*62
1491505277.71,40325,12.56,72716.0,-10.77,-11.63,-11.63,0,*61
1491505279.01,40326,12.56,72722.8,-10.75,-11.55,-11.59,0,*6C
1491505280.3,40327,12.56,72690.3,-10.75,-11.59,-11.59,0,*61
1491505281.59,40328,12.56,72704.3,-10.75,-11.73,-11.63,0,*6F
1491505282.88,40329,12.56,72716.8,-10.75,-11.73,-11.73,0,*6F
1491505284.17,40330,12.56,72726.0,-10.75,-11.59,-11.59,0,*67
1491505285.47,40331,12.56,72766.8,-10.75,-11.73,-11.63,0,*67
1491505286.77,40332,12.56,72760.5,-10.75,-11.63,-11.63,0,*65
1491505288.06,40333,12.56,72742.8,-10.75,-11.73,-11.63,0,*65
1491505289.36,40334,12.56,72696.8,-10.75,-11.63,-11.63,0,*63
1491505290.65,40335,12.56,72714.5,-10.75,-11.73,-11.73,0,*62
1491505291.94,40336,12.56,72716.5,-10.75,-11.63,-11.73,0,*60
1491505293.21,40337,12.56,72728.3,-10.77,-11.67,-11.67,0,*62
1491505294.5,40338,12.56,72706.5,-10.75,-11.77,-11.73,0,*6B
1491505295.78,40339,12.56,72700.0,-10.75,-11.73,-11.77,0,*6A
1491505297.07,40340,12.56,72724.8,-10.75,-11.77,-11.77,0,*60
1491505298.33,40341,12.56,72734.0,-10.77,-11.77,-11.77,0,*63
1491505299.59,40342,12.56,72730.0,-10.77,-11.67,-11.77,0,*61
1491505300.88,40343,12.56,72736.5,-10.75,-11.63,-11.73,0,*62
1491505302.18,40344,12.56,72732.8,-10.75,-11.63,-11.63,0,*64
1491505303.44,40345,12.56,72730.3,-10.77,-11.77,-11.67,0,*66
1491505304.74,40346,12.56,72714.0,-10.75,-11.63,-11.73,0,*67
1491505306.04,40347,12.56,72704.0,-10.75,-11.63,-11.63,0,*67
1491505307.33,40348,12.56,72728.3,-10.75,-11.73,-11.63,0,*69
1491505308.63,40349,12.56,72728.0,-10.75,-11.63,-11.63,0,*69
1491505309.92,40350,12.56,72720.5,-10.75,-11.73,-11.77,0,*65
1491505311.21,40351,12.56,72720.8,-10.75,-11.63,-11.85,0,*68
1491505312.5,40352,12.56,72718.8,-10.75,-11.85,-11.77,0,*6E
1491505313.79,40353,12.56,72722.0,-10.75,-11.77,-11.77,0,*62
1491505315.05,40354,12.56,72732.3,-10.77,-11.67,-11.77,0,*66
1491505316.31,40355,12.56,72734.5,-10.77,-11.67,-11.67,0,*66
1491505317.61,40356,12.56,72726.8,-10.75,-11.63,-11.73,0,*66
1491505318.87,40357,12.56,72720.8,-10.77,-11.89,-11.89,0,*64
1491505320.13,40358,12.56,72726.5,-10.77,-11.67,-11.67,0,*6B
1491505321.43,40359,12.56,72732.8,-10.75,-11.59,-11.59,0,*68
1491505322.69,40360,12.56,72732.5,-10.77,-11.63,-11.59,0,*69
1491505323.96,40361,12.56,72734.0,-10.77,-11.63,-11.63,0,*61
1491505325.22,40362,12.56,72730.8,-10.77,-11.63,-11.67,0,*66
1491505326.52,40363,12.56,72722.3,-10.75,-11.59,-11.63,0,*68
1491505327.82,40364,12.56,72716.5,-10.75,-11.55,-11.63,0,*63
1491505329.11,40365,12.56,72718.8,-10.75,-11.73,-11.73,0,*67
1491505330.4,40366,12.56,72726.5,-10.75,-11.73,-11.77,0,*60
1491505331.68,40367,12.56,72724.0,-10.75,-11.73,-11.77,0,*61
1491505332.98,40368,12.56,72722.3,-10.75,-11.63,-11.63,0,*6A
1491505334.27,40369,12.56,72700.3,-10.75,-11.63,-11.73,0,*6A
1491505335.54,40370,12.56,72712.5,-10.77,-11.77,-11.67,0,*60
1491505336.84,40371,12.56,72702.3,-10.75,-11.63,-11.63,0,*62
1491505338.12,40372,12.56,72712.3,-10.75,-11.73,-11.77,0,*65
1491505339.41,40373,12.56,72722.3,-10.75,-11.63,-11.77,0,*65
1491505340.7,40374,12.56,72742.0,-10.75,-11.85,-11.85,0,*67
1491505341.99,40375,12.56,72732.5,-10.75,-11.77,-11.77,0,*66
1491505343.28,40376,12.56,72720.8,-10.75,-11.85,-11.77,0,*68
1491505344.53,40377,12.56,72692.8,-10.77,-11.81,-11.81,0,*66
1491505345.82,40378,12.56,72660.5,-10.75,-11.85,-11.77,0,*66
1491505347.12,40379,12.56,72666.0,-10.75,-11.89,-11.89,0,*6A
1491505348.39,40380,12.56,72666.5,-10.75,-11.97,-12.03,0,*62
1491505349.64,40381,12.56,72690.3,-10.77,-11.89,-11.81,0,*67
1491505350.9,40382,12.56,72676.8,-10.77,-11.77,-11.77,0,*6C
1491505352.2,40383,12.56,72672.3,-10.75,-11.63,-11.63,0,*6F
1491505353.46,40384,12.56,72678.0,-10.77,-11.77,-11.67,0,*6B
1491505354.75,40385,12.56,72668.8,-10.75,-11.73,-11.77,0,*6D
1491505356.01,40386,12.56,72664.5,-10.77,-11.77,-11.81,0,*61
1491505357.3,40387,12.56,72664.8,-10.75,-11.73,-11.63,0,*6A
1491505358.56,40388,12.56,72664.5,-10.77,-11.67,-11.77,0,*67
1491505359.85,40389,12.56,72664.0,-10.75,-11.73,-11.73,0,*65
1491505361.14,40390,12.56,72692.3,-10.75,-11.73,-11.63,0,*6C
1491505362.44,40391,12.56,72702.0,-10.75,-11.63,-11.63,0,*6C
1491505363.74,40392,12.56,72710.0,-10.75,-11.63,-11.63,0,*6F
1491505365.03,40393,12.56,72704.3,-10.75,-11.63,-11.73,0,*6F
1491505366.29,40394,12.56,72688.5,-10.77,-11.89,-11.81,0,*63
1491505367.58,40395,12.56,72684.3,-10.75,-11.97,-11.97,0,*68
1491505368.88,40396,12.56,72674.5,-10.75,-11.89,-11.89,0,*6B
1491505370.17,40397,12.56,72654.8,-10.75,-11.73,-11.63,0,*6B
1491505371.43,40398,12.56,72650.5,-10.77,-11.77,-11.77,0,*67
1491505372.72,40399,12.56,72682.8,-10.75,-11.85,-11.85,0,*64
1491505374.01,40400,12.56,72678.3,-10.75,-11.73,-11.73,0,*63
1491505375.3,40401,12.56,72670.8,-10.75,-11.63,-11.67,0,*66
1491505376.57,40402,12.56,72656.0,-10.77,-11.67,-11.67,0,*63
1491505377.82,40403,12.56,72668.8,-10.77,-11.81,-11.81,0,*62
1491505379.07,40404,12.56,72666.5,-10.77,-11.81,-11.81,0,*65
1491505380.34,40405,12.56,72676.5,-10.77,-11.67,-11.67,0,*64
1491505381.63,40406,12.56,72678.8,-10.75,-11.63,-11.73,0,*64
1491505382.92,40407,12.56,72696.5,-10.75,-11.73,-11.73,0,*64
1491505384.22,40408,12.56,72648.8,-10.75,-11.55,-11.63,0,*6E
1491505385.48,40409,12.56,72672.3,-10.77,-11.77,-11.77,0,*68
1491505386.73,40410,12.56,72672.0,-10.77,-11.81,-11.77,0,*69
1491505387.99,40411,12.56,72694.0,-10.77,-11.77,-11.67,0,*60
1491505389.29,40412,12.56,72708.8,-10.75,-11.63,-11.73,0,*61
1491505390.55,40413,12.56,72700.3,-10.77,-11.63,-11.67,0,*67
1491505391.85,40414,12.56,72694.0,-10.75,-11.59,-11.67,0,*6B
1491505393.11,40415,12.56,72694.3,-10.77,-11.67,-11.67,0,*65
1491505394.37,40416,12.56,72720.5,-10.77,-11.67,-11.67,0,*66
1491505395.65,40417,12.56,72734.8,-10.75,-11.45,-11.55,0,*64
1491505396.94,40418,12.56,72728.5,-10.75,-11.59,-11.59,0,*6A
1491505398.21,40419,12.56,72724.0,-10.77,-11.59,-11.55,0,*65
1491505399.48,40420,12.56,72706.5,-10.77,-11.63,-11.63,0,*63
1491505400.77,40421,12.56,72724.0,-10.75,-11.59,-11.59,0,*60
1491505402.06,40422,12.56,72722.3,-10.75,-11.59,-11.55,0,*6F
1491505403.36,40423,12.56,72726.5,-10.75,-11.59,-11.55,0,*6E
1491505404.65,40424,12.56,72728.3,-10.75,-11.59,-11.59,0,*65
1491505405.95,40425,12.56,72720.5,-10.75,-11.59,-11.55,0,*68
1491505407.24,40426,12.56,72728.0,-10.75,-11.59,-11.59,0,*67
1491505408.51,40427,12.56,72728.3,-10.77,-11.67,-11.63,0,*60
1491505409.8,40428,12.56,72712.0,-10.75,-11.63,-11.59,0,*60
1491505411.09,40429,12.56,72690.0,-10.75,-11.73,-11.59,0,*60
1491505412.38,40430,12.56,72678.3,-10.75,-11.73,-11.73,0,*60
1491505413.67,40431,12.56,72716.3,-10.75,-11.73,-11.73,0,*61
1491505414.97,40432,12.56,72732.0,-10.75,-11.63,-11.63,0,*62
1491505416.27,40433,12.56,72716.3,-10.75,-11.63,-11.63,0,*63
1491505417.56,40434,12.56,72726.3,-10.75,-11.73,-11.63,0,*65
1491505418.86,40435,12.56,72728.5,-10.75,-11.63,-11.63,0,*65
1491505420.16,40436,12.56,72732.3,-10.75,-11.59,-11.63,0,*6F
1491505421.43,40437,12.56,72732.5,-10.73,-11.63,-11.73,0,*60
1491505422.73,40438,12.56,72728.3,-10.75,-11.63,-11.63,0,*68
1491505424.03,40439,12.56,72714.5,-10.75,-11.63,-11.63,0,*69
1491505425.33,40440,12.56,72734.8,-10.75,-11.63,-11.63,0,*67
1491505426.62,40441,12.56,72750.0,-10.75,-11.59,-11.59,0,*66
1491505427.92,40442,12.56,72728.5,-10.75,-11.59,-11.55,0,*69
1491505429.22,40443,12.56,72698.5,-10.75,-11.63,-11.63,0,*64
1491505430.5,40444,12.56,72696.3,-10.75,-11.73,-11.73,0,*63
1491505431.79,40445,12.56,72696.8,-10.75,-11.97,-11.97,0,*62
1491505433.09,40446,12.56,72692.3,-10.75,-11.77,-11.85,0,*6C
1491505434.34,40447,12.56,72720.8,-10.77,-11.77,-11.73,0,*66
1491505435.64,40448,12.56,72724.8,-10.75,-11.63,-11.63,0,*6F
1491505436.94,40449,12.56,72732.5,-10.75,-11.63,-11.63,0,*6E
1491505438.24,40450,12.56,72748.3,-10.75,-11.59,-11.55,0,*6A
1491505439.53,40451,12.56,72750.0,-10.75,-11.59,-11.59,0,*67
1491505440.8,40452,12.56,72748.3,-10.77,-11.63,-11.67,0,*62
1491505442.1,40453,12.56,72744.8,-10.75,-11.63,-11.63,0,*65
1491505443.38,40454,12.56,72740.5,-10.75,-11.73,-11.73,0,*62
1491505444.68,40455,12.56,72736.3,-10.75,-11.77,-11.85,0,*6E
1491505445.96,40456,12.56,72726.0,-10.75,-11.73,-11.73,0,*60
1491505447.26,40457,12.56,72738.3,-10.75,-11.63,-11.63,0,*61
1491505448.56,40458,12.56,72736.3,-10.75,-11.63,-11.59,0,*67
1491505449.83,40459,12.56,72732.5,-10.73,-11.73,-11.63,0,*68
1491505451.1,40460,12.56,72736.5,-10.73,-11.73,-11.63,0,*62
1491505452.4,40461,12.56,72710.5,-10.75,-11.63,-11.63,0,*64
1491505453.67,40462,12.56,72712.0,-10.73,-11.63,-11.63,0,*61
1491505454.97,40463,12.56,72712.0,-10.71,-11.59,-11.67,0,*6F
1491505456.24,40464,12.56,72716.3,-10.73,-11.73,-11.63,0,*66
1491505457.53,40465,12.56,72728.8,-10.75,-11.73,-11.63,0,*61
1491505458.82,40466,12.56,72738.8,-10.75,-11.73,-11.63,0,*62
1491505460.12,40467,12.56,72748.3,-10.75,-11.73,-11.63,0,*63
1491505461.41,40468,12.56,72742.3,-10.75,-11.85,-11.77,0,*60
1491505462.67,40469,12.56,72726.8,-10.73,-11.77,-11.77,0,*6A
1491505463.94,40470,12.56,72714.5,-10.73,-11.73,-11.63,0,*63
1491505465.24,40471,12.56,72696.0,-10.75,-11.77,-11.85,0,*68
1491505466.5,40472,12.56,72702.0,-10.73,-11.85,-11.85,0,*60
1491505467.79,40473,12.56,72718.8,-10.75,-11.77,-11.77,0,*67
1491505469.08,40474,12.56,72716.8,-10.75,-11.77,-11.77,0,*60
1491505470.37,40475,12.56,72716.8,-10.75,-11.73,-11.73,0,*61
1491505471.64,40476,12.56,72718.5,-10.73,-11.63,-11.73,0,*65
1491505472.92,40477,12.56,72722.0,-10.71,-11.73,-11.77,0,*63
1491505474.19,40478,12.56,72720.3,-10.73,-11.73,-11.73,0,*6A
1491505475.48,40479,12.56,72724.5,-10.75,-11.63,-11.63,0,*6D
1491505476.78,40480,12.56,72730.5,-10.75,-11.63,-11.63,0,*6B
1491505478.08,40481,12.56,72728.3,-10.75,-11.63,-11.63,0,*6A
1491505479.38,40482,12.56,72720.5,-10.75,-11.73,-11.63,0,*68
1491505480.67,40483,12.56,72718.8,-10.75,-11.85,-11.85,0,*68
1491505481.96,40484,12.56,72710.0,-10.75,-11.89,-11.89,0,*6F
1491505483.25,40485,12.56,72710.3,-10.75,-11.85,-11.77,0,*63
1491505484.55,40486,12.56,72706.3,-10.75,-11.63,-11.63,0,*6D
1491505485.84,40487,12.56,72710.8,-10.75,-11.73,-11.77,0,*68
1491505487.13,40488,12.56,72712.5,-10.75,-11.73,-11.73,0,*63
1491505488.41,40489,12.56,72706.0,-10.75,-11.73,-11.73,0,*62
1491505489.71,40490,12.56,72710.8,-10.75,-11.63,-11.63,0,*6A
1491505491.01,40491,12.56,72710.5,-10.75,-11.59,-11.55,0,*67
1491505492.3,40492,12.56,72712.5,-10.75,-11.59,-11.59,0,*68
1491505493.59,40493,12.56,72712.0,-10.75,-11.59,-11.59,0,*69
1491505494.86,40494,12.56,72714.3,-10.73,-11.59,-11.59,0,*68
1491505496.13,40495,12.56,72714.3,-10.73,-11.73,-11.59,0,*61
1491505497.43,40496,12.56,72718.8,-10.75,-11.63,-11.63,0,*6C
1491505498.72,40497,12.56,72722.5,-10.75,-11.59,-11.59,0,*6D
1491505500.01,40498,12.56,72724.8,-10.75,-11.59,-11.59,0,*62
1491505501.31,40499,12.56,72726.8,-10.75,-11.59,-11.63,0,*6A
1491505502.61,40500,12.56,72730.5,-10.75,-11.73,-11.63,0,*63
1491505503.89,40501,12.56,72728.8,-10.75,-11.73,-11.73,0,*63
1491505505.19,40502,12.56,72738.3,-10.75,-11.73,-11.63,0,*61
1491505506.48,40503,12.56,72742.5,-10.75,-11.63,-11.73,0,*60
1491505507.76,40504,12.56,72746.8,-10.73,-11.63,-11.63,0,*60
1491505509.03,40505,12.56,72744.8,-10.73,-11.55,-11.59,0,*6D
1491505510.3,40506,12.56,72746.3,-10.73,-11.59,-11.59,0,*62
1491505511.56,40507,12.56,72742.3,-10.73,-11.73,-11.59,0,*6B
1491505512.83,40508,12.56,72746.5,-10.73,-11.73,-11.63,0,*6D
1491505514.13,40509,12.56,72742.5,-10.75,-11.63,-11.73,0,*6A
1491505515.43,40510,12.56,72748.5,-10.75,-11.63,-11.63,0,*63
1491505516.73,40511,12.56,72746.8,-10.75,-11.63,-11.63,0,*62
1491505518.02,40512,12.56,72744.5,-10.75,-11.63,-11.73,0,*60
1491505519.31,40513,12.56,72744.5,-10.75,-11.73,-11.73,0,*60
1491505520.61,40514,12.56,72750.3,-10.75,-11.63,-11.63,0,*67
1491505521.9,40515,12.56,72756.5,-10.75,-11.63,-11.73,0,*67
1491505523.2,40516,12.56,72756.8,-10.75,-11.63,-11.63,0,*65
1491505524.49,40517,12.56,72746.0,-10.75,-11.73,-11.63,0,*65
1491505525.76,40518,12.56,72736.5,-10.73,-11.63,-11.73,0,*6C
1491505527.05,40519,12.56,72750.5,-10.75,-11.73,-11.77,0,*6E
1491505528.33,40520,12.56,72754.8,-10.73,-11.63,-11.63,0,*66
1491505529.62,40521,12.56,72752.5,-10.75,-11.73,-11.63,0,*60
1491505530.92,40522,12.56,72760.0,-10.75,-11.63,-11.63,0,*62
1491505532.22,40523,12.56,72760.8,-10.75,-11.63,-11.63,0,*63
1491505533.51,40524,12.56,72764.0,-10.75,-11.55,-11.59,0,*68
1491505534.81,40525,12.56,72762.3,-10.75,-11.59,-11.59,0,*65
1491505536.1,40526,12.56,72762.3,-10.75,-11.63,-11.59,0,*6F
1491505537.4,40527,12.56,72764.3,-10.75,-11.59,-11.55,0,*6B
1491505538.69,40528,12.56,72762.0,-10.75,-11.59,-11.55,0,*64
1491505539.99,40529,12.56,72764.8,-10.75,-11.59,-11.55,0,*65
1491505541.28,40530,12.56,72768.3,-10.75,-11.55,-11.59,0,*6D
1491505542.57,40531,12.56,72766.8,-10.75,-11.55,-11.55,0,*60
1491505543.84,40532,12.56,72768.3,-10.73,-11.59,-11.59,0,*65
1491505545.11,40533,12.56,72770.8,-10.73,-11.73,-11.73,0,*64
1491505546.38,40534,12.56,72774.8,-10.73,-11.77,-11.73,0,*67
1491505547.64,40535,12.56,72766.8,-10.73,-11.73,-11.77,0,*66
1491505548.9,40536,12.56,72766.3,-10.73,-11.73,-11.77,0,*65
1491505550.17,40537,12.56,72762.5,-10.73,-11.77,-11.73,0,*64
1491505551.47,40538,12.56,72762.8,-10.75,-11.63,-11.63,0,*69
1491505552.77,40539,12.56,72762.5,-10.75,-11.63,-11.63,0,*68
1491505554.07,40540,12.56,72764.5,-10.75,-11.63,-11.63,0,*66
1491505555.37,40541,12.56,72756.0,-10.75,-11.63,-11.63,0,*67
1491505556.66,40542,12.56,72750.0,-10.75,-11.73,-11.63,0,*65
1491505557.96,40543,12.56,72754.8,-10.75,-11.63,-11.63,0,*65
1491505559.26,40544,12.56,72762.5,-10.75,-11.63,-11.63,0,*62
1491505560.52,40545,12.56,72770.0,-10.77,-11.63,-11.73,0,*60
1491505561.82,40546,12.56,72770.5,-10.75,-11.63,-11.63,0,*60
1491505563.12,40547,12.56,72764.3,-10.75,-11.63,-11.63,0,*61
1491505564.42,40548,12.56,72762.5,-10.75,-11.59,-11.63,0,*67
1491505565.71,40549,12.56,72762.8,-10.75,-11.59,-11.59,0,*6F
1491505567.01,40550,12.56,72758.3,-10.75,-11.59,-11.59,0,*67
1491505568.3,40551,12.56,72756.8,-10.75,-11.59,-11.59,0,*66
1491505569.59,40552,12.56,72754.8,-10.75,-11.59,-11.59,0,*65
1491505570.86,40553,12.56,72744.5,-10.73,-11.59,-11.59,0,*62
1491505572.16,40554,12.56,72736.8,-10.75,-11.63,-11.59,0,*6A
1491505573.45,40555,12.56,72750.3,-10.75,-11.63,-11.59,0,*6B
1491505574.74,40556,12.56,72756.5,-10.75,-11.63,-11.59,0,*68
1491505576.01,40557,12.56,72738.5,-10.73,-11.63,-11.59,0,*6F
1491505577.28,40558,12.56,72696.8,-10.73,-11.63,-11.59,0,*60
1491505578.55,40559,12.56,72656.3,-10.73,-11.73,-11.73,0,*68
1491505579.84,40560,12.56,72666.8,-10.75,-11.85,-11.85,0,*64
1491505581.13,40561,12.56,72682.0,-10.75,-11.97,-11.85,0,*66
1491505582.37,40562,12.56,72712.3,-10.77,-11.97,-12.03,0,*6A
1491505583.66,40563,12.56,72724.0,-10.75,-11.85,-11.85,0,*67
1491505584.95,40564,12.56,72738.0,-10.75,-11.85,-11.85,0,*60
1491505586.24,40565,12.56,72734.0,-10.75,-11.77,-11.77,0,*61
1491505587.5,40566,12.56,72714.0,-10.77,-11.89,-11.81,0,*68
1491505588.75,40567,12.56,72718.3,-10.77,-11.85,-11.77,0,*6C
1491505590.04,40568,12.56,72710.8,-10.75,-11.77,-11.77,0,*6C
1491505591.33,40569,12.56,72710.0,-10.75,-11.77,-11.77,0,*6D
1491505592.62,40570,12.56,72710.8,-10.75,-11.85,-11.85,0,*65
1491505593.91,40571,12.56,72718.3,-10.75,-11.89,-11.85,0,*68
1491505595.2,40572,12.56,72716.8,-10.75,-11.85,-11.85,0,*67
1491505596.49,40573,12.56,72716.3,-10.75,-11.77,-11.77,0,*66
1491505597.75,40574,12.56,72716.0,-10.77,-11.81,-11.77,0,*6A
1491505599.01,40575,12.56,72716.3,-10.77,-11.81,-11.89,0,*6A
1491505600.3,40576,12.56,72728.8,-10.75,-11.77,-11.85,0,*6E
1491505601.59,40577,12.56,72734.8,-10.75,-11.85,-11.85,0,*62
1491505602.88,40578,12.56,72728.0,-10.75,-11.89,-11.85,0,*61
1491505604.18,40579,12.56,72728.0,-10.75,-12.11,-11.89,0,*6E
1491505605.47,40580,12.56,72730.8,-10.75,-11.89,-11.93,0,*61
1491505606.77,40581,12.56,72730.3,-10.75,-11.89,-11.89,0,*6B
1491505608.03,40582,12.56,72712.3,-10.75,-12.03,-11.97,0,*66
1491505609.33,40583,12.56,72714.0,-10.75,-11.97,-11.89,0,*66
1491505610.62,40584,12.56,72720.8,-10.75,-11.85,-11.85,0,*6E
1491505611.88,40585,12.56,72710.0,-10.77,-11.89,-11.89,0,*6D
1491505613.17,40586,12.56,72702.8,-10.75,-11.97,-11.85,0,*6F
1491505614.46,40587,12.56,72714.8,-10.75,-11.89,-11.85,0,*61
1491505615.7,40588,12.56,72720.5,-10.75,-12.03,-12.03,0,*62
1491505616.92,40589,12.56,72716.0,-10.73,-12.03,-12.03,0,*65
1491505618.16,40590,12.56,72710.5,-10.77,-12.15,-12.29,0,*66
1491505619.37,40591,12.56,72712.0,-10.77,-12.43,-12.39,0,*65
1491505620.67,40592,12.56,72694.8,-10.75,-12.75,-12.83,0,*60
1491505621.88,40593,12.56,72700.3,-10.77,-12.43,-12.43,0,*6A
1491505623.17,40594,12.56,72692.8,-10.79,-12.15,-12.15,0,*63
1491505624.37,40595,12.56,72688.0,-10.77,-12.43,-12.43,0,*6C
1491505625.63,40596,12.56,72682.5,-10.77,-12.61,-12.65,0,*6B
1491505626.9,40597,12.56,72684.3,-10.77,-12.75,-12.75,0,*6E
1491505628.19,40598,12.56,72680.5,-10.79,-12.75,-12.65,0,*6E
1491505629.45,40599,12.56,72682.5,-10.79,-12.89,-12.79,0,*61
1491505630.72,40600,12.56,72672.3,-10.81,-12.79,-12.79,0,*6A
1491505632.02,40601,12.56,72676.3,-10.83,-12.61,-12.53,0,*68
1491505633.3,40602,12.56,72676.5,-10.83,-12.65,-12.61,0,*6E
1491505634.57,40603,12.56,72690.5,-10.87,-12.53,-12.43,0,*6E
1491505635.84,40604,12.56,72690.5,-10.83,-12.35,-12.39,0,*60
1491505637.11,40605,12.56,72666.8,-10.83,-12.39,-12.35,0,*61
1491505638.36,40606,12.56,72674.5,-10.83,-12.25,-12.25,0,*6E
1491505639.59,40607,12.56,72682.0,-10.87,-12.39,-12.25,0,*66
1491505640.89,40608,12.56,72666.0,-10.87,-12.53,-12.53,0,*64
1491505642.19,40609,12.56,72676.8,-10.83,-12.35,-12.35,0,*61
1491505643.43,40610,12.56,72684.0,-10.87,-12.43,-12.39,0,*60
1491505644.67,40611,12.56,72672.3,-10.83,-12.25,-12.25,0,*68
1491505645.92,40612,12.56,72690.5,-10.87,-12.29,-12.25,0,*63
1491505647.16,40613,12.56,72682.5,-10.87,-12.25,-12.29,0,*62
1491505648.41,40614,12.56,72686.5,-10.87,-12.29,-12.25,0,*65
1491505649.67,40615,12.56,72686.5,-10.87,-12.15,-12.25,0,*6B
1491505650.89,40616,12.5,72688.3,-10.89,-12.39,-12.43,0,*68
1491505652.1,40617,12.56,72692.0,-10.89,-12.39,-12.39,0,*64
1491505653.37,40618,12.56,72686.8,-10.87,-12.15,-12.25,0,*66
1491505654.63,40619,12.56,72686.0,-10.89,-12.15,-12.15,0,*6A
1491505655.87,40620,12.56,72672.5,-10.89,-12.03,-12.11,0,*63
1491505657.11,40621,12.56,72674.0,-10.89,-12.25,-12.15,0,*62
1491505658.4,40622,12.56,72646.0,-10.87,-12.15,-12.15,0,*6C
1491505659.67,40623,12.56,72650.8,-10.89,-12.15,-12.15,0,*63
1491505660.91,40624,12.56,72658.5,-10.89,-12.03,-12.11,0,*67
1491505662.12,40625,12.5,72672.0,-10.89,-12.03,-12.03,0,*65
1491505663.36,40626,12.56,72640.0,-10.89,-12.03,-11.97,0,*68
1491505664.63,40627,12.56,72652.3,-10.89,-11.89,-11.89,0,*67
1491505665.89,40628,12.56,72666.8,-10.89,-11.89,-11.97,0,*67
1491505667.19,40629,12.56,72652.0,-10.91,-11.93,-11.93,0,*60
1491505668.46,40630,12.56,72700.0,-10.89,-11.97,-11.89,0,*6E
1491505669.75,40631,12.56,72678.0,-10.91,-11.89,-11.89,0,*69
1491505671.05,40632,12.56,72686.3,-10.91,-11.89,-11.89,0,*6A
1491505672.29,40633,12.56,72716.5,-10.91,-12.03,-12.03,0,*6B
1491505673.56,40634,12.5,72714.5,-10.89,-12.11,-12.11,0,*65
1491505674.82,40635,12.56,72706.3,-10.89,-12.15,-12.15,0,*64
1491505676.06,40636,12.56,72692.3,-10.89,-12.11,-12.03,0,*64
1491505677.3,40637,12.5,72684.3,-10.89,-12.03,-11.97,0,*68
1491505678.56,40638,12.56,72712.0,-10.89,-11.97,-11.97,0,*69
1491505679.85,40639,12.56,72702.0,-10.87,-12.11,-12.15,0,*62
1491505681.11,40640,12.56,72704.5,-10.91,-12.21,-12.21,0,*6F
1491505682.34,40641,12.56,72692.5,-10.89,-12.03,-12.15,0,*60
1491505683.62,40642,12.56,72684.8,-10.91,-12.21,-12.07,0,*69
1491505684.83,40643,12.56,72712.0,-10.89,-12.03,-12.03,0,*65
1491505686.1,40644,12.56,72710.0,-10.89,-12.11,-12.15,0,*66
1491505687.32,40645,12.56,72722.0,-10.89,-12.25,-12.29,0,*6F
1491505688.54,40646,12.56,72726.3,-10.89,-12.25,-12.29,0,*6C
1491505689.8,40647,12.56,72728.8,-10.89,-12.11,-12.15,0,*65
1491505691.04,40648,12.56,72726.8,-10.89,-11.97,-12.03,0,*60
1491505692.32,40649,12.56,72724.5,-10.91,-11.93,-12.03,0,*6C
1491505693.58,40650,12.56,72728.3,-10.89,-11.89,-11.89,0,*67
1491505694.82,40651,12.56,72692.3,-10.91,-12.03,-12.03,0,*6F
1491505696.09,40652,12.56,72722.0,-10.89,-12.11,-12.11,0,*65
1491505697.31,40653,12.56,72730.3,-10.89,-12.03,-12.03,0,*64
1491505698.57,40654,12.56,72734.8,-10.89,-11.89,-11.89,0,*63
1491505699.84,40655,12.56,72742.8,-10.89,-11.89,-11.89,0,*62
1491505701.11,40656,12.56,72740.8,-10.89,-11.77,-11.85,0,*6C
1491505702.35,40657,12.56,72734.8,-10.89,-12.03,-12.11,0,*63
1491505703.64,40658,12.56,72742.3,-10.87,-11.97,-11.89,0,*6E